AEST,Max TemperatureF,Mean TemperatureF,Min TemperatureF,Max Dew PointF,MeanDew PointF,Min DewpointF,Max Humidity, Mean Humidity, Min Humidity, Max Sea Level PressureIn, Mean Sea Level PressureIn, Min Sea Level PressureIn, Max VisibilityMiles, Mean VisibilityMiles, Min VisibilityMiles, Max Wind SpeedMPH, Mean Wind SpeedMPH, Max Gust SpeedMPH,PrecipitationIn, CloudCover, Events, WindDirDegrees
2013-1-1,89,81,73,75,72,70,100,78,45,29.86,29.80,29.74,16,6,2,23,12,17,0.03,4,Rain,163
2013-1-2,90,82,75,76,73,70,94,73,42,29.83,29.78,29.71,16,6,3,18,11,,0.01,4,Rain,157
2013-1-3,91,82,73,73,70,66,94,66,37,29.82,29.77,29.71,19,7,2,21,10,,0.08,3,Rain,149
2013-1-4,89,82,74,75,73,69,94,76,45,29.81,29.76,29.71,19,7,2,22,12,,0.03,4,Rain,166
2013-1-5,89,81,73,75,71,68,94,71,44,29.87,29.80,29.74,16,6,2,23,14,25,0.08,3,Rain,153
2013-1-6,88,82,75,73,71,64,94,72,43,29.86,29.82,29.77,16,6,3,23,13,33,0.87,4,Rain,160
2013-1-7,88,81,73,75,72,66,94,79,46,29.87,29.82,29.77,12,6,2,23,14,30,0.16,5,Rain,159
2013-1-8,87,80,72,73,71,69,94,73,47,29.85,29.77,29.71,19,7,3,20,11,,0.00,5,Rain,162
2013-1-9,87,80,74,74,72,70,89,73,54,29.75,29.68,29.59,19,7,6,12,8,,0.00,3,Rain,93
2013-1-10,89,81,73,77,73,68,94,76,51,29.75,29.67,29.59,19,7,6,12,4,,0.00,1,,27
2013-1-11,87,81,75,77,73,68,94,72,49,29.85,29.77,29.71,19,7,6,16,8,,0.00,2,Rain,124
2013-1-12,91,84,77,79,75,71,94,76,51,29.86,29.83,29.80,19,7,2,17,9,,0.16,3,Rain,137
2013-1-13,91,83,73,74,70,66,94,66,36,29.85,29.80,29.74,16,7,6,15,8,,0.00,2,,135
2013-1-14,87,78,70,72,70,68,100,73,48,29.83,29.79,29.74,19,8,6,12,4,,0.00,1,,359
2013-1-15,88,80,71,75,71,68,94,71,45,29.82,29.78,29.71,19,7,6,14,6,,0.00,4,,82
2013-1-16,86,80,74,74,71,68,94,74,52,29.83,29.79,29.74,16,6,4,12,8,,0.01,6,Rain,121
2013-1-17,88,80,73,73,70,68,94,68,45,29.83,29.79,29.74,19,7,6,15,7,,0.00,5,,113
2013-1-18,87,79,71,73,71,69,94,74,51,29.83,29.76,29.71,19,7,6,10,4,,0.16,6,Rain,55
2013-1-19,80,77,74,75,74,72,100,92,79,29.77,29.69,29.62,6,4,1,15,7,,0.71,7,Rain,162
2013-1-20,87,80,74,75,74,72,95,82,55,29.75,29.68,29.62,19,7,4,14,7,,0.31,6,Rain,155
2013-1-21,88,82,75,77,75,73,100,88,61,29.69,29.63,29.56,19,6,4,14,5,,0.31,6,Rain-Thunderstorm,170
2013-1-22,80,77,74,79,76,73,100,94,83,29.60,29.51,29.44,9,5,1,20,8,16,2.91,6,Rain,152
2013-1-23,84,80,76,79,77,75,100,91,79,29.48,29.35,29.27,12,4,1,26,15,37,0.91,6,Rain,48
2013-1-24,84,80,75,79,74,71,100,84,63,29.53,29.41,29.24,19,6,1,24,15,37,1.06,7,Rain-Thunderstorm,322
2013-1-25,96,86,75,79,72,66,89,66,37,29.57,29.51,29.42,19,8,2,21,8,33,0.12,6,Rain,297
2013-1-26,96,88,80,79,72,66,74,59,41,29.61,29.52,29.44,19,8,6,15,9,22,0.00,5,,313
2013-1-27,98,88,78,76,73,72,89,61,38,29.60,29.53,29.47,19,7,3,17,9,31,0.00,5,Rain,264
2013-1-28,98,88,77,77,72,68,89,65,36,29.68,29.59,29.53,19,6,2,18,11,26,0.31,5,Rain-Thunderstorm,234
2013-1-29,100,88,75,82,74,68,94,68,27,29.70,29.64,29.56,19,7,5,15,6,24,0.08,5,Rain,308
2013-1-30,95,86,76,81,74,67,89,67,32,29.81,29.70,29.65,19,9,6,15,4,,0.00,4,,268
2013-1-31,89,82,76,79,77,73,94,81,64,29.81,29.77,29.71,19,8,6,13,6,,0.00,3,,4